Location: Bijele Vode
(45.2833°N, 16.2000°E)
Time: 09:50:16
(UTC+00:00)

CZ-2C R/B - Pass Details

Date: 24 January 2021
Orbit: 390 x 584 km, 35.0° (Epoch: 27 February)

Event Time Altitude Azimuth Distance (km) Brightness Sun altitude
Exits shadow 05:01:30 10° 229° (SW) 1,808 3.6 -14.5°
Maximum altitude 05:04:29 19° 184° (S) 1,295 3.3 -14.0°
Drops below altitude 10° 05:07:22 10° 137° (SE) 1,735 4.8 -13.5°
Sets 05:09:59 0° 119° (ESE) 2,578 6.4 -13.0°
